Location: A�t �Alizem
(31.2076°N, 8.7872°W)
Time: 01:54:10
(UTC+00:00)

deb Explorer IX - Pass Details

Date: 22 June 2021
Orbit: 541 x 1234 km, 38.9° (Epoch: 29 July)

Event Time Altitude Azimuth Distance (km) Brightness Sun altitude
Exits shadow 02:17:16 28° 310° (NW) 1,480 ? -30.3°
Maximum altitude 02:19:32 40° 357° (N) 1,249 ? -30.1°
Drops below altitude 10° 02:25:41 10° 66° (ENE) 2,755 ? -29.5°
Sets 02:28:47 0° 73° (ENE) 3,821 ? -29.2°
